Location: Monteux
(44.0348°N, 4.9972°E)
Time: 17:49:45
(UTC+00:00)

NOSS 3-2 (C) - Pass Details

Date: 30 November 2020
Orbit: 789 x 1424 km, 63.4° (Epoch: 09 January)

Event Time Altitude Azimuth Distance (km) Brightness Sun altitude
Rises 18:51:31 0° 211° (SSW) 3,316 6.7 -29.6°
Reaches altitude 10° 18:53:49 10° 210° (SSW) 2,427 5.9 -30.0°
Enters shadow 18:57:48 50° 201° (SSW) 1,100 3.8 -30.7°
